| time (UTC) | temp F | wind direction | speed MPH | gust MPH | rain 1hr in | rain 24hr in | rain mn in | humidity % | barometer mb |
| 20260510125307 | 47 | 96 | 3.0 | 6.0 | 0.00 | 0.00 | 0.00 | 86 | 1018.8 |
| 20260510124304 | 47 | 57 | 2.0 | 3.0 | 0.00 | 0.00 | 0.00 | 86 | 1018.8 |
| 20260510123805 | 47 | 69 | 4.0 | 5.0 | 0.00 | 0.00 | 0.00 | 86 | 1018.8 |
| 20260510123305 | 47 | 54 | 2.0 | 5.0 | 0.00 | 0.00 | 0.00 | 86 | 1018.8 |
| 20260510121805 | 47 | 51 | 4.0 | 7.0 | 0.00 | 0.00 | 0.00 | 86 | 1018.8 |
| 20260510120305 | 47 | 60 | 4.0 | 6.0 | 0.00 | 0.00 | 0.00 | 85 | 1018.8 |
| 20260510115805 | 47 | 45 | 3.0 | 6.0 | 0.00 | 0.00 | 0.00 | 85 | 1018.8 |
| 20260510115306 | 47 | 63 | 5.0 | 7.0 | 0.00 | 0.00 | 0.00 | 85 | 1018.8 |
| 20260510113805 | 47 | 48 | 3.0 | 7.0 | 0.00 | 0.00 | 0.00 | 85 | 1018.8 |
| 20260510112805 | 47 | 66 | 5.0 | 10.0 | 0.00 | 0.00 | 0.00 | 85 | 1018.8 |
| 20260510112306 | 47 | 66 | 6.0 | 10.0 | 0.00 | 0.00 | 0.00 | 84 | 1018.8 |
| 20260510111805 | 47 | 56 | 5.0 | 10.0 | 0.00 | 0.00 | 0.00 | 84 | 1018.8 |
| 20260510110805 | 48 | 63 | 3.0 | 7.0 | 0.00 | 0.00 | 0.00 | 84 | 1018.8 |
| 20260510105306 | 48 | 54 | 5.0 | 8.0 | 0.00 | 0.00 | 0.00 | 81 | 1018.8 |
| 20260510104805 | 48 | 46 | 4.0 | 6.0 | 0.00 | 0.00 | 0.00 | 79 | 1018.3 |
| 20260510104305 | 48 | 65 | 5.0 | 8.0 | 0.00 | 0.00 | 0.00 | 79 | 1018.3 |
| 20260510103805 | 49 | 56 | 3.0 | 10.0 | 0.00 | 0.00 | 0.00 | 76 | 1018.3 |
| 20260510103305 | 49 | 77 | 3.0 | 6.0 | 0.00 | 0.00 | 0.00 | 75 | 1018.3 |
| 20260510102805 | 49 | 61 | 3.0 | 6.0 | 0.00 | 0.00 | 0.00 | 75 | 1018.3 |
| 20260510102306 | 49 | 87 | 3.0 | 6.0 | 0.00 | 0.00 | 0.00 | 75 | 1018.3 |
| 20260510101805 | 49 | 93 | 3.0 | 6.0 | 0.00 | 0.00 | 0.00 | 75 | 1018.3 |
| 20260510100805 | 49 | 101 | 4.0 | 8.0 | 0.00 | 0.00 | 0.00 | 74 | 1018.3 |
| 20260510095805 | 49 | 109 | 5.0 | 8.0 | 0.00 | 0.00 | 0.00 | 74 | 1008.2 |
| 20260510095306 | 49 | 122 | 4.0 | 6.0 | 0.00 | 0.00 | 0.00 | 74 | 1008.2 |
| 20260510093305 | 49 | 104 | 2.0 | 5.0 | 0.00 | 0.00 | 0.00 | 74 | 1008.2 |
| 20260510092307 | 49 | 78 | 2.0 | 3.0 | 0.00 | 0.00 | 0.00 | 74 | 1008.2 |
| 20260510091805 | 49 | 75 | 2.0 | 5.0 | 0.00 | 0.00 | 0.00 | 74 | 1008.2 |
| 20260510090805 | 49 | 75 | 2.0 | 3.0 | 0.00 | 0.00 | 0.00 | 74 | 1008.2 |
| 20260510085805 | 49 | 83 | 3.0 | 5.0 | 0.00 | 0.00 | 0.00 | 74 | 1008.2 |
| 20260510084304 | 49 | 128 | 2.0 | 3.0 | 0.00 | 0.00 | 0.00 | 74 | 1008.2 |
| 20260510082306 | 49 | 128 | 3.0 | 5.0 | 0.00 | 0.00 | 0.00 | 73 | 1008.2 |
| 20260510081304 | 49 | 148 | 2.0 | 3.0 | 0.00 | 0.00 | 0.00 | 73 | 1008.2 |
| 20260510075805 | 49 | 121 | 3.0 | 5.0 | 0.00 | 0.00 | 0.00 | 72 | 1008.2 |
| 20260510074806 | 49 | 34 | 1.0 | 3.0 | 0.00 | 0.00 | 0.00 | 72 | 1008.2 |
| 20260510074305 | 49 | 34 | 2.0 | 3.0 | 0.00 | 0.00 | 0.00 | 72 | 1008.2 |
| 20260510073805 | 49 | 34 | 2.0 | 3.0 | 0.00 | 0.00 | 0.00 | 71 | 1008.2 |
| 20260510071804 | 49 | 313 | 1.0 | 2.0 | 0.00 | 0.00 | 0.00 | 72 | 1008.2 |
| 20260510071304 | 49 | 313 | 0.0 | 0.0 | 0.00 | 0.00 | 0.00 | 72 | 1008.2 |
| 20260510070305 | 49 | 313 | 0.0 | 2.0 | 0.00 | 0.00 | 0.00 | 72 | 1008.2 |
| 20260510065804 | 49 | 313 | 1.0 | 2.0 | 0.00 | 0.00 | 0.00 | 72 | 1008.2 |
| 20260510064305 | 49 | 313 | 2.0 | 3.0 | 0.00 | 0.00 | 0.00 | 73 | 1008.2 |
| 20260510063304 | 49 | 313 | 2.0 | 3.0 | 0.00 | 0.00 | 0.00 | 74 | 1008.2 |
| 20260510062804 | 49 | 313 | 1.0 | 5.0 | 0.00 | 0.00 | 0.00 | 75 | 1008.2 |
| 20260510062307 | 49 | 342 | 1.0 | 2.0 | 0.00 | 0.00 | 0.00 | 76 | 1008.2 |
| 20260510061804 | 49 | 342 | 1.0 | 2.0 | 0.00 | 0.00 | 0.00 | 76 | 1008.2 |
| 20260510060816 | 49 | 342 | 3.0 | 6.0 | 0.00 | 0.00 | 0.00 | 76 | 1008.2 |
| 20260510055306 | 49 | 3 | 2.0 | 3.0 | 0.00 | 0.00 | 0.00 | 76 | 1008.2 |
| 20260510054804 | 49 | 344 | 4.0 | 5.0 | 0.00 | 0.00 | 0.00 | 76 | 1008.2 |
| 20260510054305 | 49 | 351 | 1.0 | 3.0 | 0.00 | 0.00 | 0.00 | 76 | 1008.2 |
| 20260510052805 | 49 | 11 | 5.0 | 7.0 | 0.00 | 0.00 | 0.00 | 75 | 1008.2 |
| 20260510051805 | 50 | 11 | 6.0 | 8.0 | 0.00 | 0.00 | 0.00 | 74 | 1008.2 |
| 20260510050804 | 50 | 337 | 5.0 | 7.0 | 0.00 | 0.00 | 0.00 | 73 | 1008.2 |
| 20260510045306 | 50 | 349 | 5.0 | 9.0 | 0.00 | 0.00 | 0.00 | 75 | 1008.2 |
| 20260510044804 | 50 | 21 | 5.0 | 7.0 | 0.00 | 0.00 | 0.00 | 75 | 1008.2 |
| 20260510041805 | 50 | 21 | 4.0 | 7.0 | 0.00 | 0.00 | 0.00 | 75 | 1008.2 |
| 20260510040305 | 50 | 4 | 5.0 | 9.0 | 0.00 | 0.00 | 0.00 | 72 | 1008.2 |
| 20260510035306 | 51 | 11 | 6.0 | 10.0 | 0.00 | 0.00 | 0.00 | 69 | 1008.2 |
| 20260510034304 | 51 | 357 | 8.0 | 13.0 | 0.00 | 0.00 | 0.00 | 66 | 1008.2 |
| 20260510033805 | 51 | 1 | 6.0 | 15.0 | 0.00 | 0.00 | 0.00 | 66 | 1008.2 |
| 20260510032805 | 52 | 354 | 7.0 | 12.0 | 0.00 | 0.00 | 0.00 | 67 | 1008.2 |
| 20260510030804 | 52 | 2 | 10.0 | 15.0 | 0.00 | 0.00 | 0.00 | 67 | 1008.2 |
| 20260510030305 | 52 | 347 | 10.0 | 17.0 | 0.00 | 0.00 | 0.00 | 67 | 1008.2 |
| 20260510025306 | 52 | 1 | 11.0 | 20.0 | 0.00 | 0.00 | 0.00 | 67 | 1008.2 |
| 20260510024305 | 52 | 2 | 12.0 | 21.0 | 0.00 | 0.00 | 0.00 | 67 | 1008.2 |
| 20260510023804 | 52 | 354 | 10.0 | 20.0 | 0.00 | 0.00 | 0.00 | 68 | 1008.2 |
| 20260510022805 | 52 | 5 | 18.0 | 30.0 | 0.00 | 0.00 | 0.00 | 69 | 1008.2 |
| 20260510022306 | 52 | 1 | 9.0 | 23.0 | 0.00 | 0.00 | 0.00 | 69 | 1008.2 |
| 20260510021804 | 52 | 354 | 13.0 | 28.0 | 0.00 | 0.00 | 0.00 | 68 | 1008.2 |
| 20260510020305 | 53 | 352 | 17.0 | 31.0 | 0.00 | 0.00 | 0.00 | 67 | 1008.2 |
| 20260510015805 | 53 | 358 | 16.0 | 23.0 | 0.00 | 0.00 | 0.00 | 67 | 1008.2 |
| 20260510015306 | 54 | 337 | 13.0 | 23.0 | 0.00 | 0.00 | 0.00 | 67 | 1008.2 |
| 20260510012805 | 55 | 4 | 10.0 | 28.0 | 0.00 | 0.00 | 0.00 | 61 | 1008.2 |
| 20260510012307 | 56 | 7 | 19.0 | 36.0 | 0.00 | 0.00 | 0.00 | 60 | 1008.2 |
| 20260510011305 | 57 | 358 | 15.0 | 28.0 | 0.00 | 0.00 | 0.00 | 57 | 1008.2 |
| 20260510005804 | 58 | 351 | 21.0 | 33.0 | 0.00 | 0.00 | 0.00 | 55 | 1008.2 |
| 20260510001805 | 72 | 46 | 5.0 | 10.0 | 0.00 | 0.00 | 0.00 | 24 | 1008.2 |
| 20260510000805 | 72 | 38 | 4.0 | 8.0 | 0.00 | 0.00 | 0.00 | 26 | 1008.2 |
| 20260509235805 | 73 | 64 | 7.0 | 12.0 | 0.00 | 0.00 | 0.00 | 26 | 1008.2 |
| 20260509235307 | 73 | 37 | 6.0 | 12.0 | 0.00 | 0.00 | 0.00 | 23 | 1008.2 |
| 20260509234805 | 73 | 56 | 6.0 | 12.0 | 0.00 | 0.00 | 0.00 | 24 | 1008.2 |
| 20260509233805 | 73 | 46 | 5.0 | 8.0 | 0.00 | 0.00 | 0.00 | 23 | 1008.2 |
| 20260509231804 | 73 | 39 | 4.0 | 12.0 | 0.00 | 0.00 | 0.00 | 20 | 1008.2 |
| 20260509231304 | 74 | 55 | 6.0 | 12.0 | 0.00 | 0.00 | 0.00 | 21 | 1008.2 |
| 20260509225805 | 74 | 80 | 6.0 | 12.0 | 0.00 | 0.00 | 0.00 | 22 | 1008.2 |
| 20260509225306 | 74 | 77 | 6.0 | 8.0 | 0.00 | 0.00 | 0.00 | 20 | 1008.2 |
| 20260509224305 | 73 | 354 | 5.0 | 10.0 | 0.00 | 0.00 | 0.00 | 20 | 1008.2 |
| 20260509223805 | 74 | 12 | 7.0 | 12.0 | 0.00 | 0.00 | 0.00 | 21 | 1008.2 |
| 20260509223304 | 74 | 29 | 6.0 | 10.0 | 0.00 | 0.00 | 0.00 | 20 | 1008.2 |
| 20260509221804 | 76 | 36 | 9.0 | 15.0 | 0.00 | 0.00 | 0.00 | 21 | 1008.2 |
| 20260509220805 | 75 | 66 | 9.0 | 20.0 | 0.00 | 0.00 | 0.00 | 21 | 1008.2 |
| 20260509220305 | 76 | 47 | 9.0 | 20.0 | 0.00 | 0.00 | 0.00 | 22 | 1008.2 |
| 20260509213804 | 75 | 29 | 7.0 | 13.0 | 0.00 | 0.00 | 0.00 | 21 | 1008.2 |
| 20260509213305 | 76 | 22 | 8.0 | 15.0 | 0.00 | 0.00 | 0.00 | 21 | 1008.2 |
| 20260509212805 | 76 | 54 | 10.0 | 17.0 | 0.00 | 0.00 | 0.00 | 21 | 1008.2 |
| 20260509204805 | 75 | 18 | 9.0 | 13.0 | 0.00 | 0.00 | 0.00 | 20 | 1008.2 |
| 20260509203805 | 75 | 76 | 5.0 | 14.0 | 0.00 | 0.00 | 0.00 | 23 | 1008.2 |
| 20260509203305 | 75 | 56 | 7.0 | 13.0 | 0.00 | 0.00 | 0.00 | 21 | 1008.2 |
| 20260509202805 | 75 | 61 | 9.0 | 17.0 | 0.00 | 0.00 | 0.00 | 21 | 1008.2 |
| 20260509202307 | 75 | 62 | 5.0 | 7.0 | 0.00 | 0.00 | 0.00 | 22 | 1008.2 |
| 20260509201805 | 74 | 77 | 2.0 | 9.0 | 0.00 | 0.00 | 0.00 | 21 | 1008.2 |
| 20260509201305 | 75 | 46 | 12.0 | 17.0 | 0.00 | 0.00 | 0.00 | 21 | 1008.2 |
| 20260509200805 | 74 | 58 | 7.0 | 15.0 | 0.00 | 0.00 | 0.00 | 22 | 1008.2 |
| 20260509195306 | 75 | 308 | 6.0 | 12.0 | 0.00 | 0.00 | 0.00 | 22 | 1008.2 |
| 20260509193805 | 75 | 58 | 6.0 | 12.0 | 0.00 | 0.00 | 0.00 | 22 | 1008.2 |
| 20260509192805 | 74 | 56 | 5.0 | 13.0 | 0.00 | 0.00 | 0.00 | 22 | 1008.2 |
| 20260509191804 | 74 | 22 | 7.0 | 13.0 | 0.00 | 0.00 | 0.00 | 22 | 1008.2 |
| 20260509185306 | 74 | 106 | 9.0 | 12.0 | 0.00 | 0.00 | 0.00 | 23 | 1008.2 |
| 20260509184805 | 74 | 111 | 6.0 | 12.0 | 0.00 | 0.00 | 0.00 | 25 | 1008.2 |
| 20260509183304 | 73 | 57 | 7.0 | 13.0 | 0.00 | 0.00 | 0.00 | 25 | 1008.2 |
| 20260509182805 | 72 | 87 | 9.0 | 15.0 | 0.00 | 0.00 | 0.00 | 24 | 1008.2 |
| 20260509175804 | 73 | 7 | 7.0 | 14.0 | 0.00 | 0.00 | 0.00 | 26 | 1008.3 |
| 20260509174805 | 71 | 43 | 8.0 | 14.0 | 0.00 | 0.00 | 0.00 | 26 | 1008.3 |
| 20260509173304 | 71 | 39 | 13.0 | 20.0 | 0.00 | 0.00 | 0.00 | 27 | 1007.5 |
| 20260509172805 | 71 | 33 | 10.0 | 15.0 | 0.00 | 0.00 | 0.00 | 28 | 1007.5 |
| 20260509172306 | 72 | 67 | 8.0 | 17.0 | 0.00 | 0.00 | 0.00 | 27 | 1007.5 |
| 20260509171305 | 72 | 40 | 8.0 | 18.0 | 0.00 | 0.00 | 0.00 | 26 | 1007.5 |
| 20260509170805 | 72 | 10 | 9.0 | 15.0 | 0.00 | 0.00 | 0.00 | 27 | 1007.5 |
| 20260509170304 | 73 | 46 | 6.0 | 15.0 | 0.00 | 0.00 | 0.00 | 22 | 1007.5 |
| 20260509165804 | 73 | 69 | 3.0 | 12.0 | 0.00 | 0.00 | 0.00 | 21 | 1007.5 |
| 20260509165306 | 72 | 7 | 7.0 | 12.0 | 0.00 | 0.00 | 0.00 | 21 | 1007.5 |
| 20260509164804 | 72 | 28 | 4.0 | 8.0 | 0.00 | 0.00 | 0.00 | 21 | 1007.5 |
| 20260509164305 | 73 | 65 | 5.0 | 7.0 | 0.00 | 0.00 | 0.00 | 21 | 1007.5 |
| 20260509163805 | 72 | 98 | 2.0 | 6.0 | 0.00 | 0.00 | 0.00 | 23 | 1007.5 |
| 20260509163305 | 72 | 27 | 2.0 | 6.0 | 0.00 | 0.00 | 0.00 | 21 | 1007.5 |
| 20260509162307 | 71 | 355 | 3.0 | 6.0 | 0.00 | 0.00 | 0.00 | 24 | 1007.5 |
| 20260509160805 | 71 | 120 | 2.0 | 5.0 | 0.00 | 0.00 | 0.00 | 25 | 1007.5 |
| 20260509160304 | 71 | 359 | 3.0 | 5.0 | 0.00 | 0.00 | 0.00 | 25 | 1007.5 |
| 20260509155805 | 70 | 88 | 4.0 | 5.0 | 0.00 | 0.00 | 0.00 | 24 | 1007.5 |
| 20260509154804 | 70 | 71 | 4.0 | 6.0 | 0.00 | 0.00 | 0.00 | 25 | 1007.5 |
| 20260509154304 | 69 | 351 | 3.0 | 6.0 | 0.00 | 0.00 | 0.00 | 25 | 1007.5 |
| 20260509152805 | 69 | 290 | 4.0 | 6.0 | 0.00 | 0.00 | 0.00 | 25 | 1007.5 |
| 20260509150805 | 67 | 295 | 2.0 | 5.0 | 0.00 | 0.00 | 0.00 | 29 | 1007.5 |
| 20260509150304 | 66 | 306 | 2.0 | 6.0 | 0.00 | 0.00 | 0.00 | 32 | 1007.5 |
| 20260509145805 | 65 | 5 | 2.0 | 6.0 | 0.00 | 0.00 | 0.00 | 35 | 1007.5 |
| 20260509145306 | 64 | 262 | 1.0 | 6.0 | 0.00 | 0.00 | 0.00 | 37 | 1007.5 |
| 20260509141304 | 59 | 156 | 3.0 | 5.0 | 0.00 | 0.00 | 0.00 | 50 | 1007.5 |
| 20260509140804 | 58 | 96 | 1.0 | 5.0 | 0.00 | 0.00 | 0.00 | 54 | 1007.5 |
| 20260509140304 | 57 | 77 | 2.0 | 5.0 | 0.00 | 0.00 | 0.00 | 54 | 1007.5 |
| 20260509135306 | 55 | 63 | 1.0 | 2.0 | 0.00 | 0.00 | 0.00 | 60 | 1007.5 |
| 20260509134805 | 54 | 63 | 1.0 | 2.0 | 0.00 | 0.00 | 0.00 | 58 | 1007.5 |
| 20260509134305 | 54 | 63 | 0.0 | 1.0 | 0.00 | 0.00 | 0.00 | 61 | 1007.5 |
| 20260509133305 | 54 | 63 | 1.0 | 3.0 | 0.00 | 0.00 | 0.00 | 59 | 1007.5 |
| 20260509131305 | 53 | 229 | 2.0 | 3.0 | 0.00 | 0.00 | 0.00 | 57 | 1007.5 |